Weather History for Houston, TX

Change the Weather History Date:

Saturday, June 29, 2013

  Actual Average Record
Temperature  
Mean Temperature 94 °F 84 °F  
Max Temperature 107 °F 93 °F 107 °F (2013)
Min Temperature 80 °F 75 °F 59 °F (1974)
Cooling Degree Days 29 19  
Month to date cooling degree days 570 502  
Year to date cooling degree days 1140 1154  
Since 1 June cooling degree days 570 502  
Growing Degree Days 42 (Base 50)    
Moisture  
Dew Point 71 °F    
Average Humidity 52    
Maximum Humidity 79    
Minimum Humidity 25    
Precipitation  
Precipitation 0.00 in 0.19 in 2.50 in (1899)
Month to date precipitation 4.46 5.74  
Year to date precipitation 13.78 24.13  
Sea Level Pressure  
Sea Level Pressure 29.80 in    
Wind  
Wind Speed 8 mph (WSW)    
Max Wind Speed 18 mph    
Max Gust Speed 22 mph    
Visibility 10 miles    
Events      
T = Trace of Precipitation, MM = Missing Value Source: NWS Daily Summary

Daily Weather History Graph

Daily Weather History Graph

Search for Another Location

Airport:

Trip Planner

Search our weather history database for the weather conditions in past years. The results will help you decide how hot, cold, wet, or windy it might be!

Date:

Astronomy

Jun. 29, 2013 Rise Set
Actual Time 6:23 AM CDT 8:25 PM CDT
Civil Twilight 5:56 AM CDT 8:52 PM CDT
Nautical Twilight 5:23 AM CDT 9:25 PM CDT
Astronomical Twilight 4:48 AM CDT 10:00 PM CDT
Moon 12:25 AM CDT (6/29) 1:02 PM CDT (6/29)
Length of Visible Light 14h 56m
Length of Day
14h 01m
Waning Gibbous, 55% of the Moon is Illuminated
Jun 29
Waning Gibbous
Jun 29
Last Quarter
Jul 8
New
Jul 15
First Quarter
Jul 22
Full

Hourly Weather History & Observations

Time (CDT) Temp. Heat Index Dew Point Humidity Pressure Visibility Wind Dir Wind Speed Gust Speed Precip Events Conditions
12:53 AM 81.0 °F 85.8 °F 73.0 °F 77% 29.85 in 10.0 mi SSW 6.9 mph - N/A   Scattered Clouds
1:53 AM 80.1 °F 84.5 °F 73.9 °F 81% 29.84 in 10.0 mi SW 5.8 mph - N/A   Clear
2:53 AM 81.0 °F 86.2 °F 73.9 °F 79% 29.84 in 10.0 mi SW 4.6 mph - N/A   Clear
3:53 AM 80.1 °F 84.5 °F 73.9 °F 81% 29.83 in 9.0 mi WSW 6.9 mph - N/A   Clear
4:53 AM 80.1 °F 84.5 °F 73.9 °F 81% 29.84 in 9.0 mi WSW 6.9 mph - N/A   Clear
5:53 AM 79.0 °F - 73.9 °F 84% 29.85 in 9.0 mi WSW 5.8 mph - N/A   Scattered Clouds
6:53 AM 80.1 °F 84.5 °F 73.9 °F 81% 29.86 in 10.0 mi West 6.9 mph - N/A   Mostly Cloudy
7:53 AM 81.0 °F 86.2 °F 73.9 °F 79% 29.86 in 10.0 mi WSW 10.4 mph - N/A   Scattered Clouds
8:53 AM 84.9 °F 90.7 °F 72.0 °F 65% 29.87 in 10.0 mi West 12.7 mph - N/A   Scattered Clouds
9:53 AM 89.1 °F 94.1 °F 70.0 °F 53% 29.86 in 10.0 mi WSW 13.8 mph 19.6 mph N/A   Partly Cloudy
10:53 AM 91.9 °F 96.9 °F 69.1 °F 47% 29.84 in 10.0 mi West 11.5 mph - N/A   Scattered Clouds
11:53 AM 95.0 °F 100.7 °F 69.1 °F 43% 29.83 in 10.0 mi West 13.8 mph 19.6 mph N/A   Scattered Clouds
12:53 PM 97.0 °F 102.2 °F 68.0 °F 39% 29.82 in 10.0 mi West 12.7 mph 19.6 mph N/A   Partly Cloudy
1:53 PM 100.0 °F 107.0 °F 69.1 °F 37% 29.80 in 10.0 mi NNW 10.4 mph - N/A   Scattered Clouds
2:53 PM 102.0 °F 107.3 °F 66.9 °F 32% 29.78 in 10.0 mi WNW 8.1 mph - N/A   Scattered Clouds
3:53 PM 104.0 °F 109.6 °F 66.9 °F 30% 29.75 in 10.0 mi North 9.2 mph - N/A   Scattered Clouds
4:53 PM 104.0 °F 108.1 °F 64.9 °F 28% 29.73 in 10.0 mi NE 3.5 mph - N/A   Scattered Clouds
5:53 PM 104.0 °F 107.4 °F 64.0 °F 27% 29.71 in 10.0 mi ENE 9.2 mph - N/A   Scattered Clouds
6:53 PM 100.0 °F 104.9 °F 66.9 °F 34% 29.71 in 10.0 mi East 6.9 mph - N/A   Scattered Clouds
7:53 PM 93.9 °F 106.9 °F 75.9 °F 56% 29.73 in 10.0 mi SSE 8.1 mph - N/A   Scattered Clouds
8:53 PM 91.0 °F 102.9 °F 75.9 °F 61% 29.74 in 10.0 mi South 8.1 mph - N/A   Scattered Clouds
9:53 PM 88.0 °F 97.5 °F 75.0 °F 65% 29.76 in 10.0 mi SSW 5.8 mph - N/A   Scattered Clouds
10:53 PM 87.1 °F 95.4 °F 73.9 °F 65% 29.79 in 10.0 mi WSW 5.8 mph - N/A   Scattered Clouds
11:53 PM 84.9 °F 91.4 °F 73.0 °F 67% 29.81 in 10.0 mi WSW 5.8 mph - N/A   Scattered Clouds